map of PAH home
PAH - Airport
Location
City:  Paducah, Kentucky, United States
Name:Barkley Regional
ICAO:KPAH
IATA:PAH
FAA LID:PAH

Details
Type:Airport (Part 139 Class I)
Use:Public/Civil
Latitude:3703'37"N (37.060288)
Longitude:8846'23"W (-88.772957)
Datum:WGS 1984
Elevation:410 ft (125 m)
Variation:2.51W (WMM2015 magnetic declination)
-0.09 annual change
Runways:2
Longest:6500 × 150 ft (1981 × 45.5 m), paved

Time
Time Zone:UTC-6 (DST-5)
Local Time:

Weather
METAR:KPAH 200453Z 29003KT 10SM OVC027 05/02 A3017 RMK AO2 SLP217 T00500022
TAF:KPAH 200520Z 2006/2106 29005KT 6SM BR BKN040
FM201200 33008KT P6SM BKN015
FM201600 33008KT P6SM SCT020
FM202300 30003KT P6SM SKC

Related Locations
Nearby:
Farthest:YAUG: 11088 mi / 17844 km
Augusta [Augusta Airport], WA, AU

Find:

   beyond  
but within

Other Information
Maps:
Delays:
NOTAMs:
Links:
Sources:

  
  • flag of United States
  • flag of Kentucky
  

Airport Diagram

Airport diagram for PAH

Airport diagram PDF

Sectional Chart

Flight Planning
at skyvector.com

Satellite Image

Google Maps Satellite view

 

Copyright © 2004-2018 Karl L. Swartz. All rights reserved.
The Great Circle Mapper name and logo are trademarks of the Great Circle Mapper.
All other trademarks mentioned herein belong to their respective owners.
Please see credits for attibutions and further copyright information.

  Follow gcmap on Facebook Follow gcmap on Twitter Follow gcmap on Google+ GCmap on LinkedIn

hCard Microformat

Geo Microformat